This is the latest recevied weather packets stored in our database for station/object WB4ROX. If no packets are shown the sender has not sent any weather packets the latest 10 day(s).
| Time | Temp. | Humidity | Pressure | Rain* | Wind** | Luminosity | Snow |
|---|---|---|---|---|---|---|---|
| 1777860157 | 6.67° C | 43% | 1018.9 hPa | 0 mm | - | 0 W/m² | - |
| 1777859854 | 6.67° C | 41% | 1018.6 hPa | 0 mm | - | 0 W/m² | - |
| 1777859550 | 6.11° C | 43% | 1018.5 hPa | 0 mm | - | 0 W/m² | - |
| 1777859246 | 6.11° C | 45% | 1018.9 hPa | 0 mm | - | 0 W/m² | - |
| 1777858943 | 5.56° C | 47% | 1018.5 hPa | 0 mm | - | 0 W/m² | - |
| 1777858641 | 5.56° C | 49% | 1018.5 hPa | 0 mm | - | 0 W/m² | - |
| 1777858338 | 6.11° C | 48% | 1018.3 hPa | 0 mm | - | 0 W/m² | - |
| 1777858034 | 6.11° C | 46% | 1018.8 hPa | 0 mm | - | 0 W/m² | - |
| 1777857733 | 6.11° C | 44% | 1018.5 hPa | 0 mm | - | 0 W/m² | - |
| 1777857429 | 6.11° C | 43% | 1018.5 hPa | 0 mm | - | 0 W/m² | - |
| 1777857126 | 6.11° C | 44% | 1018.4 hPa | 0 mm | - | 0 W/m² | - |
| 1777856822 | 5.56° C | 43% | 1018.4 hPa | 0 mm | - | 0 W/m² | - |
| 1777856517 | 6.11° C | 45% | 1018.4 hPa | 0 mm | - | 0 W/m² | - |
| 1777856214 | 6.11° C | 44% | 1018.4 hPa | 0 mm | - | 0 W/m² | - |
| 1777855911 | 6.11° C | 44% | 1018.1 hPa | 0 mm | - | 0 W/m² | - |
| 1777855609 | 6.11° C | 44% | 1018.3 hPa | 0 mm | - | 0 W/m² | - |
| 1777855306 | 6.11° C | 43% | 1018.3 hPa | 0 mm | - | 0 W/m² | - |
| 1777855002 | 6.67° C | 43% | 1018.2 hPa | 0 mm | - | 0 W/m² | - |
| 1777854699 | 6.67° C | 43% | 1018.3 hPa | 0 mm | - | 0 W/m² | - |
| 1777854396 | 6.67° C | 43% | 1018.3 hPa | 0 mm | - | 1 W/m² | - |
| 1777854094 | 6.67° C | 42% | 1018.3 hPa | 0 mm | - | 2 W/m² | - |
| 1777853791 | 7.22° C | 41% | 1018.1 hPa | 0 mm | - | 3 W/m² | - |
| 1777853487 | 7.78° C | 39% | 1018.1 hPa | 0 mm | - | 6 W/m² | - |
| 1777853185 | 7.78° C | 39% | 1018.2 hPa | 0 mm | - | 9 W/m² | - |
| 1777852882 | 8.33° C | 37% | 1018.3 hPa | 0 mm | - | 14 W/m² | - |
* Rain latest hour (hover to see other rain measurements)
** Current wind speed in m/s (hover to see current wind gust speed)